K7SFN Weather Reports


Display with metric or nautical units.
time (UTC)temp
F
wind
direction
speed
MPH
gust
MPH
rain 1hr
in
rain 24hr
in
rain mn
in
humidity
%
barometer
mb
20260507005504 76 11 1.0 6.0 0.00 0.00 0.00 17 1019.4
20260507005004 76 83 1.0 6.0 0.00 0.00 0.00 16 1019.4
20260507004504 76 357 3.0 8.0 0.00 0.00 0.00 16 1019.4
20260507004005 77 37 4.0 9.0 0.00 0.00 0.00 16 1019.4
20260507003005 76 323 0.0 6.0 0.00 0.00 0.00 17 1019.4
20260507002504 76 53 6.0 9.0 0.00 0.00 0.00 17 1019.4
20260507001504 76 130 1.0 5.0 0.00 0.00 0.00 16 1019.3
20260507001004 77 57 4.0 8.0 0.00 0.00 0.00 16 1019.4
20260507000505 77 31 6.0 13.0 0.00 0.00 0.00 17 1019.6
20260507000005 77 354 0.0 7.0 0.00 0.00 0.00 17 1019.4
20260506235005 77 60 2.0 8.0 0.00 0.00 0.00 17 1019.4
20260506234504 77 81 5.0 10.0 0.00 0.00 0.00 17 1019.4
20260506234004 77 105 3.0 7.0 0.00 0.00 0.00 16 1019.4
20260506233504 77 128 5.0 12.0 0.00 0.00 0.00 16 1019.5
20260506233005 77 135 4.0 9.0 0.00 0.00 0.00 15 1019.4
20260506232504 77 57 6.0 10.0 0.00 0.00 0.00 18 1019.6
20260506232004 77 58 1.0 5.0 0.00 0.00 0.00 18 1019.6
20260506231504 77 70 2.0 7.0 0.00 0.00 0.00 16 1019.6
20260506231005 78 86 5.0 9.0 0.00 0.00 0.00 18 1019.7
20260506230505 77 91 4.0 9.0 0.00 0.00 0.00 18 1019.7
20260506230004 77 40 4.0 13.0 0.00 0.00 0.00 18 1019.8
20260506225504 77 20 2.0 9.0 0.00 0.00 0.00 17 1019.8
20260506224504 77 90 3.0 9.0 0.00 0.00 0.00 18 1019.9
20260506224004 77 27 6.0 12.0 0.00 0.00 0.00 18 1020.0
20260506223504 77 123 2.0 7.0 0.00 0.00 0.00 18 1020.1
20260506223004 76 101 3.0 7.0 0.00 0.00 0.00 19 1020.2
20260506222004 78 25 4.0 14.0 0.00 0.00 0.00 17 1020.4
20260506221504 78 33 3.0 10.0 0.00 0.00 0.00 16 1020.5
20260506220504 78 112 6.0 13.0 0.00 0.00 0.00 16 1020.6
20260506220005 78 39 5.0 9.0 0.00 0.00 0.00 18 1020.8
20260506215504 77 26 6.0 10.0 0.00 0.00 0.00 19 1020.8
20260506215006 77 46 6.0 16.0 0.00 0.00 0.00 18 1020.9
20260506214505 77 7 2.0 12.0 0.00 0.00 0.00 18 1020.9
20260506214004 77 346 4.0 12.0 0.00 0.00 0.00 18 1020.9
20260506213504 77 22 10.0 15.0 0.00 0.00 0.00 18 1021.0
20260506212505 77 27 3.0 10.0 0.00 0.00 0.00 19 1021.0
20260506212005 77 359 6.0 10.0 0.00 0.00 0.00 18 1021.0
20260506211504 77 27 7.0 13.0 0.00 0.00 0.00 18 1021.0
20260506211004 77 55 7.0 12.0 0.00 0.00 0.00 20 1021.1
20260506210505 77 99 5.0 9.0 0.00 0.00 0.00 20 1021.1
20260506210004 77 28 5.0 12.0 0.00 0.00 0.00 22 1021.1
20260506205504 77 357 5.0 12.0 0.00 0.00 0.00 19 1021.1
20260506205004 77 44 7.0 13.0 0.00 0.00 0.00 20 1021.1
20260506204504 77 29 4.0 12.0 0.00 0.00 0.00 22 1021.2
20260506203505 77 47 6.0 12.0 0.00 0.00 0.00 19 1021.2
20260506203004 76 17 6.0 12.0 0.00 0.00 0.00 23 1021.3
20260506202504 76 116 5.0 12.0 0.00 0.00 0.00 22 1021.2
20260506202004 76 120 6.0 10.0 0.00 0.00 0.00 22 1021.4
20260506201504 75 237 7.0 13.0 0.00 0.00 0.00 21 1021.4
20260506200504 75 20 7.0 13.0 0.00 0.00 0.00 21 1021.5
20260506200005 75 44 9.0 14.0 0.00 0.00 0.00 20 1021.5
20260506195505 74 43 5.0 9.0 0.00 0.00 0.00 23 1021.5
20260506194504 75 39 6.0 12.0 0.00 0.00 0.00 23 1021.6
20260506194005 75 21 9.0 17.0 0.00 0.00 0.00 23 1021.6
20260506193504 74 60 5.0 13.0 0.00 0.00 0.00 24 1021.6
20260506193004 74 54 8.0 13.0 0.00 0.00 0.00 23 1021.6
20260506192504 74 147 4.0 13.0 0.00 0.00 0.00 24 1021.6
20260506192004 74 64 5.0 10.0 0.00 0.00 0.00 26 1021.6
20260506191505 74 78 5.0 10.0 0.00 0.00 0.00 27 1021.7
20260506191005 73 80 6.0 16.0 0.00 0.00 0.00 29 1021.6
20260506190505 73 35 5.0 10.0 0.00 0.00 0.00 30 1021.7
20260506190006 73 28 9.0 13.0 0.00 0.00 0.00 31 1021.7
20260506185504 73 31 7.0 13.0 0.00 0.00 0.00 32 1021.7
20260506184004 72 29 7.0 13.0 0.00 0.00 0.00 32 1021.8
20260506183005 72 93 6.0 12.0 0.00 0.00 0.00 35 1021.7
20260506182504 71 63 5.0 14.0 0.00 0.00 0.00 34 1021.8
20260506182004 71 38 3.0 10.0 0.00 0.00 0.00 35 1021.8
20260506181504 71 63 4.0 12.0 0.00 0.00 0.00 34 1021.8
20260506181005 70 113 5.0 14.0 0.00 0.00 0.00 34 1021.8
20260506180505 70 89 4.0 9.0 0.00 0.00 0.00 36 1021.8
20260506180005 70 74 6.0 10.0 0.00 0.00 0.00 36 1021.8
20260506174504 69 67 6.0 12.0 0.00 0.00 0.00 37 1021.8
20260506174005 68 11 6.0 13.0 0.00 0.00 0.00 38 1021.7
20260506173505 68 37 7.0 13.0 0.00 0.00 0.00 39 1021.7
20260506172505 68 47 6.0 13.0 0.00 0.00 0.00 41 1021.7
20260506172004 68 110 6.0 14.0 0.00 0.00 0.00 39 1021.6
20260506171004 67 50 5.0 14.0 0.00 0.00 0.00 44 1021.6
20260506170504 66 24 5.0 12.0 0.00 0.00 0.00 42 1021.6
20260506165504 66 45 10.0 16.0 0.00 0.00 0.00 43 1021.7
20260506165005 66 17 6.0 10.0 0.00 0.00 0.00 43 1021.7
20260506164504 66 49 9.0 13.0 0.00 0.00 0.00 43 1021.6
20260506164005 65 19 7.0 12.0 0.00 0.00 0.00 43 1021.6
20260506163505 65 37 8.0 12.0 0.00 0.00 0.00 45 1021.6
20260506163005 65 69 5.0 10.0 0.00 0.00 0.00 46 1021.6
20260506162004 64 19 4.0 8.0 0.00 0.00 0.00 50 1021.7
20260506161504 63 96 2.0 7.0 0.00 0.00 0.00 51 1021.6
20260506160505 61 1 0.0 3.0 0.00 0.00 0.00 59 1021.6
20260506155505 60 49 0.0 3.0 0.00 0.00 0.00 63 1021.6
20260506155004 59 334 0.0 5.0 0.00 0.00 0.00 66 1021.5
20260506154505 59 333 0.0 2.0 0.00 0.00 0.00 65 1021.5
20260506154004 58 335 1.0 5.0 0.00 0.00 0.00 66 1021.5
20260506153505 58 191 0.0 0.0 0.00 0.00 0.00 70 1021.5
20260506153005 57 191 0.0 0.0 0.00 0.00 0.00 70 1021.4
20260506152504 57 191 0.0 0.0 0.00 0.00 0.00 70 1021.4
20260506152004 56 191 0.0 0.0 0.00 0.00 0.00 71 1021.5
20260506151505 56 191 0.0 0.0 0.00 0.00 0.00 73 1021.6
20260506151004 55 191 0.0 0.0 0.00 0.00 0.00 73 1021.5
20260506150505 55 191 0.0 0.0 0.00 0.00 0.00 74 1021.4
20260506150005 54 191 0.0 0.0 0.00 0.00 0.00 76 1021.5
20260506145505 54 191 0.0 0.0 0.00 0.00 0.00 77 1021.5
20260506145005 54 191 0.0 0.0 0.00 0.00 0.00 77 1021.4
20260506144504 53 191 0.0 0.0 0.00 0.00 0.00 79 1021.4
20260506144005 52 191 0.0 0.0 0.00 0.00 0.00 80 1021.4
20260506143505 52 191 0.0 0.0 0.00 0.00 0.00 82 1021.2
20260506143004 51 191 0.0 0.0 0.00 0.00 0.00 84 1021.1
20260506142504 50 191 0.0 1.0 0.00 0.00 0.00 86 1021.2
20260506142004 50 195 1.0 1.0 0.00 0.00 0.00 87 1021.1
20260506141505 49 130 0.0 0.0 0.00 0.00 0.00 89 1021.0
20260506141004 48 130 0.0 0.0 0.00 0.00 0.00 91 1021.0
20260506140505 47 130 0.0 0.0 0.00 0.00 0.00 93 1021.0
20260506140005 46 130 0.0 0.0 0.00 0.00 0.00 94 1020.9
20260506135505 45 130 0.0 0.0 0.00 0.00 0.00 94 1020.9
20260506135004 44 130 0.0 0.0 0.00 0.00 0.00 94 1020.9
20260506134504 43 130 0.0 0.0 0.00 0.00 0.00 94 1020.7
20260506134004 43 130 0.0 0.0 0.00 0.00 0.00 94 1020.6
20260506133004 43 130 0.0 0.0 0.00 0.00 0.00 94 1020.4
20260506132005 43 130 0.0 0.0 0.00 0.00 0.00 94 1020.3
20260506131505 43 130 0.0 0.0 0.00 0.00 0.00 94 1020.3
20260506131004 43 130 0.0 0.0 0.00 0.00 0.00 94 1020.2
20260506130504 43 130 0.0 0.0 0.00 0.00 0.00 94 1020.0
20260506125504 43 130 0.0 0.0 0.00 0.00 0.00 93 1019.9
20260506125005 43 130 0.0 0.0 0.00 0.00 0.00 93 1019.8
20260506124504 43 130 0.0 0.0 0.00 0.00 0.00 93 1019.8
20260506123504 43 130 0.0 0.0 0.00 0.00 0.00 93 1019.7
20260506123005 43 130 0.0 0.0 0.00 0.00 0.00 93 1019.6
20260506122504 43 130 0.0 0.0 0.00 0.00 0.00 93 1019.6
20260506122005 43 130 0.0 0.0 0.00 0.00 0.00 93 1019.4
20260506121504 43 130 0.0 0.0 0.00 0.00 0.00 93 1019.4
20260506121005 43 130 0.0 0.0 0.00 0.00 0.00 92 1019.3
20260506120504 44 130 0.0 0.0 0.00 0.00 0.00 92 1019.3
20260506120005 44 130 0.0 0.0 0.00 0.00 0.00 92 1019.2
20260506115505 44 130 0.0 0.0 0.00 0.00 0.00 92 1019.2
20260506115004 44 130 0.0 0.0 0.00 0.00 0.00 92 1019.1
20260506114005 44 130 0.0 0.0 0.00 0.00 0.00 92 1019.0
20260506113504 44 130 0.0 0.0 0.00 0.00 0.00 91 1018.9
20260506113004 44 130 0.0 0.0 0.00 0.00 0.00 91 1018.8
20260506112504 44 130 0.0 0.0 0.00 0.00 0.00 91 1018.8
20260506112004 44 130 0.0 0.0 0.00 0.00 0.00 91 1018.7
20260506111004 45 130 0.0 0.0 0.00 0.00 0.00 91 1018.6
20260506110504 44 130 0.0 0.0 0.00 0.00 0.00 91 1018.6
20260506110004 45 130 0.0 0.0 0.00 0.00 0.00 90 1018.5
20260506105504 45 130 0.0 0.0 0.00 0.01 0.00 90 1018.4
20260506105004 45 130 0.0 0.0 0.00 0.01 0.00 90 1018.3
20260506104004 45 130 0.0 0.0 0.00 0.01 0.00 89 1018.2
20260506103504 45 130 0.0 0.0 0.00 0.01 0.00 89 1018.1
20260506102504 46 130 0.0 0.0 0.00 0.01 0.00 90 1018.1
20260506102004 46 130 0.0 0.0 0.00 0.01 0.00 89 1017.9
20260506101504 46 130 0.0 0.0 0.00 0.01 0.00 90 1017.9
20260506101004 46 130 0.0 0.0 0.00 0.01 0.00 90 1017.9
20260506100505 46 130 0.0 0.0 0.00 0.01 0.00 91 1017.9
20260506100004 46 130 0.0 0.0 0.00 0.01 0.00 91 1017.8
20260506095505 46 130 0.0 0.0 0.00 0.01 0.00 91 1017.6
20260506095004 46 130 0.0 0.0 0.00 0.01 0.00 91 1017.7
20260506094504 46 130 0.0 0.0 0.00 0.01 0.00 91 1017.5
20260506094005 46 130 0.0 0.0 0.00 0.01 0.00 90 1017.5
20260506092504 47 130 0.0 0.0 0.00 0.01 0.00 89 1017.5
20260506092005 47 130 0.0 0.0 0.00 0.01 0.00 88 1017.5
20260506091504 48 130 0.0 0.0 0.00 0.01 0.00 88 1017.5
20260506091004 48 130 0.0 0.0 0.00 0.01 0.00 88 1017.4
20260506090504 48 130 0.0 0.0 0.00 0.01 0.00 88 1017.4
20260506090004 47 130 0.0 0.0 0.00 0.01 0.00 88 1017.4
20260506085504 47 130 0.0 0.0 0.00 0.01 0.00 88 1017.4
20260506084504 47 130 0.0 0.0 0.00 0.01 0.00 88 1017.3
20260506084004 48 130 0.0 0.0 0.00 0.01 0.00 87 1017.3
20260506083505 48 130 0.0 0.0 0.00 0.01 0.00 86 1017.3
20260506083004 48 130 0.0 0.0 0.00 0.01 0.00 85 1017.2
20260506081505 49 130 0.0 0.0 0.00 0.01 0.00 85 1017.2
20260506081005 49 130 0.0 2.0 0.00 0.01 0.00 86 1017.0
20260506080504 49 347 0.0 1.0 0.00 0.01 0.00 85 1017.0
20260506073504 51 73 0.0 0.0 0.00 0.02 0.00 81 1016.8
20260506073005 52 73 0.0 1.0 0.00 0.03 0.00 80 1016.7
20260506072504 52 165 3.0 6.0 0.00 0.05 0.00 81 1016.7
20260506072004 51 170 3.0 7.0 0.00 0.05 0.00 81 1016.6
20260506071504 51 60 2.0 3.0 0.00 0.06 0.00 82 1016.6
20260506071005 52 9 1.0 3.0 0.00 0.07 0.00 81 1016.6
20260506070504 52 171 0.0 3.0 0.00 0.08 0.00 82 1016.4
20260506062004 54 167 0.0 0.0 0.00 0.12 0.10 77 1016.1
20260506061504 54 167 0.0 0.0 0.00 0.12 0.10 76 1016.0
20260506061005 54 167 0.0 0.0 0.00 0.12 0.10 74 1015.9
20260506060504 54 167 0.0 3.0 0.00 0.12 0.10 74 1015.7
20260506051005 55 143 0.0 0.0 0.00 0.14 0.10 75 1014.8
20260506050505 55 143 0.0 0.0 0.00 0.14 0.10 76 1014.8
20260506045005 56 143 0.0 0.0 0.00 0.14 0.10 70 1014.6
20260506044004 56 143 0.0 0.0 0.00 0.14 0.10 70 1014.3
20260506043505 57 143 0.0 0.0 0.00 0.14 0.10 68 1014.3
20260506043004 57 143 0.0 0.0 0.00 0.14 0.10 68 1014.3
20260506042504 57 143 0.0 0.0 0.00 0.14 0.10 67 1014.3
20260506042004 57 143 0.0 0.0 0.00 0.14 0.10 66 1014.2
20260506041504 57 143 0.0 0.0 0.00 0.14 0.10 66 1013.9
20260506041005 57 143 0.0 0.0 0.00 0.14 0.10 66 1013.8
20260506040505 58 143 0.0 0.0 0.00 0.14 0.10 64 1013.7
20260506035504 58 143 0.0 0.0 0.00 0.14 0.10 64 1013.6
20260506035005 58 143 0.0 0.0 0.00 0.14 0.10 62 1013.5
20260506034504 58 143 0.0 3.0 0.00 0.14 0.10 62 1013.4
20260506034004 58 180 3.0 6.0 0.00 0.14 0.10 62 1013.3
20260506033504 58 185 3.0 6.0 0.00 0.14 0.10 63 1013.3
20260506033004 59 177 3.0 6.0 0.00 0.14 0.10 64 1013.2
20260506032504 59 161 1.0 3.0 0.00 0.14 0.10 63 1013.2
20260506032005 59 251 0.0 1.0 0.00 0.14 0.10 62 1013.2
20260506031004 59 215 0.0 1.0 0.00 0.14 0.10 59 1013.1
20260506030505 59 202 3.0 8.0 0.00 0.14 0.10 57 1013.0
20260506030005 59 233 3.0 8.0 0.00 0.15 0.10 58 1012.9
20260506025504 60 214 4.0 7.0 0.00 0.15 0.10 58 1013.0
20260506025005 60 205 3.0 8.0 0.00 0.15 0.10 59 1013.0
20260506024504 61 209 1.0 6.0 0.00 0.15 0.10 60 1012.9
20260506024005 61 200 0.0 0.0 0.00 0.15 0.10 58 1012.9
20260506023505 62 198 1.0 5.0 0.00 0.15 0.10 57 1012.7
20260506023005 62 218 0.0 5.0 0.00 0.15 0.10 57 1012.6
20260506022504 63 212 1.0 3.0 0.00 0.15 0.10 56 1012.5
20260506021504 64 144 0.0 3.0 0.00 0.15 0.10 56 1012.5
20260506021004 64 239 3.0 7.0 0.00 0.15 0.10 53 1012.4
20260506020504 64 272 1.0 7.0 0.00 0.15 0.10 50 1012.4
20260506020004 64 205 2.0 5.0 0.00 0.15 0.10 50 1012.4
20260506015504 65 240 2.0 5.0 0.00 0.15 0.10 52 1012.4
20260506015004 65 232 3.0 7.0 0.00 0.17 0.10 49 1012.4
20260506014504 65 225 3.0 6.0 0.00 0.19 0.10 48 1012.3
20260506013505 66 227 3.0 7.0 0.00 0.23 0.10 48 1012.3
20260506013004 66 225 2.0 8.0 0.00 0.23 0.10 48 1012.4
20260506012504 66 275 2.0 5.0 0.00 0.24 0.10 45 1012.3
20260506012005 66 262 1.0 6.0 0.00 0.24 0.10 47 1012.3
20260506011505 66 231 2.0 6.0 0.00 0.26 0.10 46 1012.3
20260506011004 66 267 1.0 5.0 0.00 0.28 0.10 45 1012.3
20260506010504 67 265 3.0 6.0 0.00 0.30 0.10 44 1012.1